Location: Haieshausen
(51.8387°N, 9.9720°E)
Time: 03:05:00
(UTC+00:00)

Cosmos 2082 Rocket - Pass Details

Date: 14 July 2020
Orbit: 834 x 853 km, 71.0° (Epoch: 10 August)

Event Time Altitude Azimuth Distance (km) Brightness Sun altitude
Exits shadow 02:22:43 - 212° (SSW) 2,641 4.1 -7.0°
Reaches altitude 10° 02:23:09 10° 212° (SSW) 2,479 4.0 -7.0°
Maximum altitude 02:28:52 83° 301° (WNW) 865 2.3 -6.4°
Drops below altitude 10° 02:34:37 10° 30° (NNE) 2,489 6.3 -5.8°
Sets 02:37:04 0° 31° (NNE) 3,426 7.4 -5.5°
